Spokane Felts, WA
on Sunday, February 10, 2013

Sunday
Previous Day Next Day
Daily Summary
 ActualAverageRecord
Temperature
Mean Temperature °F 34°F  
Max Temperature 36°F 41°F 46°F (2002)
Min Temperature 25°F 26°F 21°F (2001)
Degree Days
Heating Degree Days 34 31  
Month to date heating degree days 298 319  
Since 1 July heating degree days 3599 4031  
Cooling Degree Days 0 0  
Month to date cooling degree days 0 0  
Year to date cooling degree days 0 0  
Moisture
Dew Point 25°F   
Average Humidity 81    
Maximum Humidity 92    
Minimum Humidity 70    
Precipitation
Precipitation 0.00 in 0.06 in 0.18 in (2014)
Month to date precipitation 0.08 0.60  
Year to date precipitation 1.71 2.55  
Wind
Wind Speed 1 mph   
Max Wind Speed 6 mph   
Max Gust Speed 7 mph   
Visibility 4 miles   
Events Fog   

Key: T is trace of precipitation, MM is missing value
Source: NWS Daily Summary
Time(PST)TemperatureDew PointHumidity Pressure Visibility Wind DirectionWind SpeedGust SpeedPrecipitationEvents Conditions
12:03 AM 26.6°F 23.0°F 86% 30.19 in 3.0 miles Calm Calm - N/A   Clear
12:29 AM 26.6°F 21.2°F 80% 30.19 in 2.5 miles Calm Calm - N/A   Clear
12:39 AM 26.6°F 23.0°F 86% 30.19 in 3.0 miles Calm Calm - N/A   Clear
12:45 AM 26.6°F 21.2°F 80% 30.20 in 1.5 miles Calm Calm - N/A   Clear
12:53 AM 26.1°F 21.9°F 84% 30.25 in 1.0 miles Calm Calm - N/A   Clear
1:36 AM 24.8°F 21.2°F 86% 30.20 in 2.5 miles Calm Calm - N/A   Clear
1:42 AM 26.6°F 21.2°F 80% 30.20 in 3.0 miles Calm Calm - N/A   Partly Cloudy
1:53 AM 26.1°F 23.0°F 88% 30.27 in 4.0 miles Calm Calm - N/A   Scattered Clouds
2:00 AM 26.6°F 21.2°F 80% 30.21 in 4.0 miles ENE 3.5 mph - N/A   Mostly Cloudy
2:53 AM 27.0°F 24.1°F 89% 30.26 in 5.0 miles Calm Calm - N/A   Mostly Cloudy
3:53 AM 27.0°F 24.1°F 89% 30.27 in 5.0 miles Calm Calm - N/A   Overcast
4:39 AM 28.4°F 24.8°F 86% 30.21 in 2.0 miles Calm Calm - N/A   Overcast
4:49 AM 28.4°F 24.8°F 86% 30.22 in 1.5 miles Calm Calm - N/A   Overcast
4:53 AM 28.0°F 25.0°F 88% 30.27 in 1.2 miles Calm Calm - N/A   Overcast
5:04 AM 28.4°F 24.8°F 86% 30.22 in 0.8 miles Calm Calm - N/A   Overcast
5:15 AM 28.4°F 24.8°F 86% 30.22 in 0.5 miles Calm Calm - N/A Fog Light Freezing Fog
5:28 AM 28.4°F 24.8°F 86% 30.22 in 0.8 miles Calm Calm - N/A   Mist
5:37 AM 28.4°F 24.8°F 86% 30.22 in 0.5 miles Calm Calm - N/A Fog Light Freezing Fog
5:53 AM 28.0°F 25.0°F 88% 30.28 in 0.2 miles Calm Calm - N/A Fog Light Freezing Fog
6:53 AM 27.0°F 24.1°F 89% 30.30 in 0.2 miles Calm Calm - N/A Fog Light Freezing Fog
7:53 AM 27.0°F 24.1°F 89% 30.32 in 1.0 miles Calm Calm - N/A   Overcast
8:53 AM 28.0°F 25.0°F 88% 30.33 in 2.0 miles Calm Calm - N/A   Overcast
9:03 AM 26.6°F 24.8°F 93% 30.27 in 4.0 miles Calm Calm - N/A   Overcast
9:05 AM 26.6°F 24.8°F 93% 30.27 in 1.5 miles Calm Calm - N/A   Overcast
9:53 AM 28.0°F 25.0°F 88% 30.33 in 3.0 miles Calm Calm - N/A   Overcast
10:00 AM 28.4°F 24.8°F 86% 30.27 in 3.0 miles Calm Calm - N/A   Overcast
10:25 AM 28.4°F 26.6°F 93% 30.27 in 4.0 miles Calm Calm - N/A   Overcast
10:53 AM 30.0°F 27.0°F 88% 30.33 in 5.0 miles Calm Calm - N/A   Overcast
11:53 AM 32.0°F 28.0°F 85% 30.31 in 6.0 miles Calm Calm - N/A   Overcast
12:53 PM 35.1°F 27.0°F 72% 30.30 in 8.0 miles SW 4.6 mph - N/A   Overcast
1:53 PM 35.1°F 26.1°F 70% 30.29 in 10.0 miles SSW 5.8 mph - N/A   Overcast
2:00 PM 35.6°F 26.6°F 70% 30.23 in 10.0 miles WSW 3.5 mph - N/A   Overcast
2:53 PM 36.0°F 27.0°F 70% 30.28 in 10.0 miles Calm Calm - N/A   Overcast
3:53 PM 36.0°F 27.0°F 70% 30.27 in 10.0 miles Calm Calm - N/A   Overcast
4:53 PM 36.0°F 27.0°F 70% 30.27 in 10.0 miles Calm Calm - N/A   Overcast
5:53 PM 35.1°F 26.1°F 70% 30.27 in 10.0 miles ESE 3.5 mph - N/A   Overcast
6:53 PM 32.0°F 26.1°F 79% 30.29 in 10.0 miles Calm Calm - N/A   Mostly Cloudy
7:53 PM 30.9°F 26.1°F 82% 30.29 in 9.0 miles Calm Calm - N/A   Mostly Cloudy
8:53 PM 30.0°F 26.1°F 85% 30.28 in 9.0 miles ENE 3.5 mph - N/A   Scattered Clouds
9:53 PM 30.0°F 26.1°F 85% 30.28 in 7.0 miles Calm Calm - N/A   Clear
10:49 PM 28.4°F 24.8°F 86% 30.21 in 7.0 miles Calm Calm - N/A   Mostly Cloudy
10:53 PM 28.0°F 24.1°F 85% 30.27 in 7.0 miles NE 3.5 mph - N/A   Mostly Cloudy
11:53 PM 28.0°F 25.0°F 88% 30.26 in 6.0 miles ENE 3.5 mph - N/A   Overcast
Moon Phase
Feb. 10 Feb. 17 Feb. 25 Mar. 04 Mar. 11
Sunrise:07:02 AM (PST) Moon Rise:06:49 AM (PST)2/10
Sunset:05:05 PM (PST) Moon Set:06:09 PM (PST)2/10

Copyright © 2014 The Weather Underground, Inc.